Regional Weather Roundup
Issued by NWS Sterling, VA

Home | Current Version | Previous Version | Graphics & Text | Print | Product List | Glossary On
Versions: 1 2 3 4 5 6 7 8 9 10 11 12 13 14 15 16 17 18 19 20 21 22 23 24 25 26 27 28 29 30 31 32 33 34 35 36 37 38 39 40 41 42 43 44 45 46 47 48 49
000
ASUS41 KLWX 200210
RWRLWX

REGIONAL WEATHER ROUNDUP
NATIONAL WEATHER SERVICE BALTIMORE MD/WASHINGTON DC
900 PM EST FRI DEC 19 2014

Note: "FAIR" indicates few or no clouds below 12,000 feet
with no significant weather and/or obstructions to visibility.
 TC=TEMPERATURE CELSIUS

 * =Non NWS site. Station does not report precipitation (e.g. rain,
    snow, etc.), thunder, or fog.

DCZ001-MDZ009-015-VAZ040>042-051-053>054-200300-
WASHINGTON METRO

CITY           SKY/WX    TMP DP  RH WIND       PRES   REMARKS
WASHINGTON NAT CLEAR     37  22  54 N13       30.25R WCI  29
DULLES         CLEAR     30  21  69 NW7       30.24R
ANDREWS AFB    CLEAR     34  22  63 NW10      30.23R WCI  26
FT BELVOIR     CLEAR     26  22  85 SW1       30.26R
QUANTICO       CLEAR     32  23  69 N7        30.27R
COLLEGE PARK*  CLEAR     34  25  69 NW5       30.24R
LEESBURG*      CLEAR     30  27  86 NW3       30.25R
MANASSAS*      CLEAR     27  25  93 NW3       30.25R
GAITHERSBURG*  CLEAR     28  19  69 NW3       30.26R

$$

MDZ006>007-011-014-200300-
BALTIMORE METRO

CITY           SKY/WX    TMP DP  RH WIND       PRES   REMARKS
BWI AIRPORT    CLEAR     31  22  69 NW6       30.22R
MD SCIENCE CTR   N/A     35  22  58 MISG      30.22R
ANNAPOLIS      CLEAR     36  23  59 NW8       30.23R
FORT MEADE*    CLEAR     28  23  80 CALM      30.25R

$$

MDZ012-015-019>023-200300-
MARYLAND EASTERN SHORE

CITY           SKY/WX    TMP DP  RH WIND       PRES   REMARKS
OCEAN CITY     CLEAR     30  24  78 W3        30.20R
SALISBURY      CLEAR     32  23  69 W3        30.20R
BAY BRIDGE AP*   N/A     36  25  64 NW9       30.23R WCI  29
CAMBRIDGE*     CLEAR     37  27  65 NW9       30.21R
EASTON*        CLEAR     34  27  75 NW9       30.25  WCI  26

$$

MDZ017>025-200300-
SOUTHERN MARYLAND

CITY           SKY/WX    TMP DP  RH WIND       PRES   REMARKS
PATUXENT RIVER CLEAR     33  22  63 W8        30.23R WCI  26
ST INIGOES     CLEAR     32  22  66 NW5       30.23R
LEONARDTOWN*   CLEAR     32  23  69 W5        30.25R

$$

MDZ003>005-200300-
NORTH CENTRAL MARYLAND

CITY           SKY/WX    TMP DP  RH WIND       PRES   REMARKS
FREDERICK*     CLEAR     32  19  59 N5        30.26
HAGERSTOWN APT CLEAR     30  19  63 NW6       30.23R
WESTMINSTER*   PTCLDY    30  21  69 NW5       30.20R

$$

MDZ501>502-200300-
WESTERN MARYLAND

CITY           SKY/WX    TMP DP  RH WIND       PRES   REMARKS
OAKLAND*       CLOUDY    21 N/A N/A NW5       30.15R
CUMBERLAND*    CLOUDY    34  21  60 NW9G20    30.30R WCI  26

$$

VAZ025>031-200300-
SHENANDOAH VALLEY

CITY           SKY/WX    TMP DP  RH WIND       PRES   REMARKS
WINCHESTER*    CLEAR     32  19  59 W8        30.24R WCI  25
FRONT ROYAL*   FAIR      27  23  86 S5        30.24R
LURAY*         FAIR      28  27  93 CALM      30.24R
NEW MARKET*    FAIR      23  20  87 CALM      30.24R
STAUNTON*      CLEAR     29  22  73 N7        30.23S
WAYNESBORO*    FAIR      28  21  77 W3        30.20S

$$

WVZ021-048>050-054>055-200300-
EASTERN WEST VIRGINIA PANHANDLE

CITY           SKY/WX    TMP DP  RH WIND       PRES   REMARKS
MARTINSBURG    CLEAR     32  19  58 NW5       30.24R
PETERSBURG*    CLOUDY    31  22  69 CALM      30.27R

$$

VAZ036>039-050-200300-
CENTRAL FOOTHILLS

CITY           SKY/WX    TMP DP  RH WIND       PRES   REMARKS
CHARLOTTESVILL CLEAR     33  22  63 N5        30.21R
CULPEPER*      CLEAR     30  25  80 CALM      30.25R
ORANGE*        CLEAR     28  25  86 CALM      30.25R
GORDONSVILLE*  FAIR      27  22  82 CALM      30.22S
WARRENTON*     FAIR      27  26  94 CALM      30.24R

$$

VAZ055>057-200300-
NORTH AND CENTRAL PIEDMONT

CITY           SKY/WX    TMP DP  RH WIND       PRES   REMARKS
FREDERICKSBRG* CLEAR     35  25  66 N5        30.25R
STAFFORD*      CLEAR     32  21  65 N8        30.29R WCI  25

$$

NCZ024-NYZ072-PAZ021-071-VAZ022-071-200300-
OTHER REGIONAL OBSERVATIONS

CITY           SKY/WX    TMP DP  RH WIND       PRES   REMARKS
NEW YORK CITY  MOCLDY    32  19  58 VRB6      30.16F
PHILADELPHIA   PTCLDY    33  21  61 N8        30.21R WCI  26
PITTSBURGH     CLOUDY    30  22  72 NW9       30.26F WCI  22
ROANOKE        MOCLDY    35  22  58 N8        30.23R WCI  29
RICHMOND       MOCLDY    34  24  67 N7        30.23R
RALEIGH        CLOUDY    41  28  60 E3        30.20R

$$

ANZ530>537-200300-
MARINE OBSERVATIONS

STATION/POSITION TIME  TEMP    WIND        PRES
                       AIR SEA DIR/SP/G
                 (UTC) (F)     (DEG/KT/KT) (MB)
THOMAS PT LIGHT  0200   36 41  310/ 12/ 15 1024.7R
BALT KEY BRIDGE  0200   37     310/ 12/ 14 1023.1R
COVE POINT       0200   36     330/ 12/ 16 1023.3R
LEWISETTA        0200   36 42  300/  6/  6 1023.5R
SOLOMONS ISLAND  0200      43                N/A

$$



USA.gov is the U.S. government's official web portal to all federal, state and local government web resources and services.